User: anonymous   Login
Location: Freistadt
(48.5112°N, 14.5013°E)
Time: 20:28:52
(UTC+02:00)
Language:

EO-79 - Orbit

View from above orbital plane
View from above orbital plane
View from above satellite
View from above satellite

Ground track
Ground track

The orbit data is extracted from the following two-line orbital elements,

1 40025U 14033R   24166.88181379  .00006330  00000-0  51687-3 0  9998
2 40025  98.0377 127.5655 0011771 165.4909 194.6653 14.99730784542534
Epoch (UTC): 14 June 2024 21:09:48
Eccentricity: 0.0011771
inclination: 98.0377°
perigee height: 559 km
apogee height: 576 km
right ascension of ascending node: 127.5655°
argument of perigee: 165.4909°
revolutions per day: 14.99730784
mean anomaly at epoch: 194.6653°
orbit number at epoch: 54253

The dashed part of the orbit path shows where the satellite is in the earth's shadow,  

DLR